Regional Weather Roundup
Issued by NWS Charleston, SC

Current Version | Previous Version | Graphics & Text | Print | Product List | Glossary On
Versions: 1 2 3 4 5 6 7 8 9 10 11 12 13 14 15 16 17 18 19 20 21 22 23 24 25 26 27 28 29 30 31 32 33 34 35 36 37 38 39 40 41 42 43 44 45 46 47 48 49 50
704
ASUS42 KCHS 241527
RWRCHS

REGIONAL WEATHER ROUNDUP
NATIONAL WEATHER SERVICE CHARLESTON SC
1000 AM EST FRI NOV 24 2017

NOTE: "FAIR" INDICATES FEW OR NO CLOUDS BELOW 12,000 FEET WITH NO
SIGNIFICANT WEATHER AND/OR OBSTRUCTIONS TO VISIBILITY.

NOT ALL STATIONS ARE QUALITY CONTROLLED. USE DATA WITH CAUTION...
ESPECIALLY DEWPOINT OBSERVATIONS.

SCZ027-030-031-034>040-042>050-241600-
...SOUTHEAST SOUTH CAROLINA...

CITY           SKY/WX    TMP DP  RH WIND       PRES   REMARKS
N CHARLESTON   MOSUNNY   48  34  58 NE10      30.01S
WATERFRONT PRK   N/A     50  40  68 N15       29.85S
JOHNS ISLAND   FAIR      55  36  47 N9        30.00S
PINOPOLIS        N/A     45  37  76 NE10      29.96S
MONCKS CORNER  FAIR      48  32  53 NE7       30.02F
SUMMERVILLE    FAIR      50  36  57 NE6       30.03S
BEAUFORT MCAS  SUNNY     52  38  58 NE12      30.01S
BEAUFORT ARPT  FAIR      52  36  54 N15       30.01R
HILTON HEAD IS NOT AVBL
WALTERBORO     MOSUNNY   52  36  54 N8        30.03S
ALLENDALE      FAIR      52  34  50 NE6G13    30.02S

...SOUTHERN MIDLANDS AND PEE DEE...

CITY           SKY/WX    TMP DP  RH WIND       PRES   REMARKS
GEORGETOWN     CLOUDY    45  36  70 N8        30.02S
KINGSTREE      FAIR      48  30  49 N6        30.03F
ORANGEBURG     SUNNY     48  32  53 NE10      30.04F
BARNWELL         N/A     54  34  47 N7        30.03F
AIKEN          FAIR      48  34  57 E7        30.06F
MANNING        FAIR      48  34  57 MISG      30.03F
COLUMBIA       MOSUNNY   48  36  63 E5        30.04F
SUMTER         SUNNY     48  33  56 NE10      30.03S
FLORENCE       SUNNY     47  34  60 NE8       30.05F
MYRTLE BEACH   CLOUDY    45  34  65 N10       30.03S
N MYRTLE BEACH PTSUNNY   45  33  63 N14       30.01S

$$

GAZ063-065-086>088-099>101-113>116-118-119-134>141-150-241600-
...SOUTHEAST GEORGIA...

CITY           SKY/WX    TMP DP  RH WIND       PRES   REMARKS
SAVANNAH ARPT  MOSUNNY   54  36  50 N10       30.01S
HUNTER AAF     SUNNY     52  38  59 NE9       29.98R
FORT STEWART   MOSUNNY   54  34  46 N8        29.99R
STATESBORO     SUNNY     55  31  39 N8        30.02S
SYLVANIA       SUNNY     53  37  53 NE8       30.03S
CLAXTON        FAIR      56  35  45 NE7       30.02S

...CSRA...CENTRAL AND FAR SOUTHEAST GEORGIA...

CITY           SKY/WX    TMP DP  RH WIND       PRES   REMARKS
THOMSON        SUNNY     48  38  67 E5        30.10S
AUGUSTA-BUSH   SUNNY     48  38  68 N3        30.04F
AUGUSTA-DANIEL SUNNY     50  33  52 NE5       30.04F
SWAINSBORO     FAIR      54  32  43 NE9       30.03F
VIDALIA        SUNNY     55  36  47 NE9       30.02S
EASTMAN        FAIR      58  20  22 E7        30.05F
HAZLEHURST     FAIR      56  27  33 NE5       30.01S
ALMA           SUNNY     55  37  50 CALM      30.00F
WAYCROSS       SUNNY     56  35  44 NE12      30.00S
JESUP          FAIR      57  36  44 NE8       30.00S
BAXLEY         FAIR      54  34  47 NE9       30.01S
BRUNSWICK      PTSUNNY   55  39  54 N7        29.99R
SAINT SIMONS   MOSUNNY   55  42  61 N10       29.97R

$$

SCZ027-028-034-036>038-045-046-048>050-GAZ119-141-241600-
...LAKE AND SUPPLEMENTAL COASTAL OBSERVATIONS...

STATION/POSITION TIME  TEMP    WIND        PRES    WAVE   SWELL
                       AIR SEA DIR/SP/G            HT/PER HT/PER/DIR
                 (UTC) (F)     (DEG/KT/KT) (MB)    (FT/S) (FT/S/D)
WINYAH BAY       1430   46      20/  6     1016.0S
LAKE MURRAY      1430   45      40/  1/  5 1016.9F
ACE BASIN NERRS  1445   49      10/  4     1016.0S
FORT PULASKI     1500   51 60   30/ 12/ 14 1015.9
SAPELO ISLAND    1500   55      10/ 14     1015.0

$$

ANZ835-935-AMZ111-154-330-350-352-354-370-450-454-472-241600-
...C-MAN AND BUOY OBSERVATIONS...

STATION/POSITION TIME  TEMP    WIND        PRES    WAVE   SWELL
                       AIR SEA DIR/SP/G            HT/PER HT/PER/DIR
                 (UTC) (F)     (DEG/KT/KT) (MB)    (FT/S) (FT/S/D)
BUOY 41004       1510   62 74   20/ 23/ 29 1013.5
BUOY 41008       1450   59 66   40/ 23/ 27 1013.6R   7/ 7   2/120/ 9
FOLLY BEACH CMAN 1500   51      10/ 12/ 16 1016.1S
CAPERS NEARSHORE 1508   48 61   30/ 19/ 25 1014.7F
FRIPP NEARSHORE  1508   52 61   10/ 12/ 21 1015.5R


STATION/POSITION TIME  TEMP    WIND        PRES    WAVE   SWELL
                       AIR SEA DIR/SP/G            HT/PER HT/PER/DIR
                 (UTC) (F)     (DEG/KT/KT) (MB)    (FT/S) (FT/S/D)
5E ST. MARYS GA  1500      66                N/A     7/ 6   2/ 80/11
FRYING PAN BUOY  1510   60 72   30/ 23/ 27 1014.0
BUOY 41025       1510   62 72   30/ 19/ 23 1016.2
CAPE LOOKOUT NC  1500           20/ 16/ 19 1016.3F
BUOY 41002       1450   74 76  130/ 12/ 16 1009.8F  10/ 8  10/ 10/ 8
BUOY 41010       NOT AVBL
ST AUGUSTINE FL  1500   60 66  330/ 16/ 18 1013.1R


$$




USA.gov is the U.S. government's official web portal to all federal, state and local government web resources and services.